$Date,$Time,DM0201B,DM0203B,DM0205B,DM0207B,DM0209B
09/01/99,00:00:01,0,0,0,0,0
09/01/99,00:05:01,108,359,-27,45,951
09/01/99,00:10:01,108,359,-27,45,951
09/01/99,00:15:01,93,359,-27,45,951
09/01/99,00:20:01,81,1,-27,47,951
09/01/99,00:25:01,70,360,-27,47,951
09/01/99,00:30:01,86,1,-27,47,951
09/01/99,00:35:01,78,360,-27,47,951
09/01/99,00:40:01,66,1,-27,47,951
09/01/99,00:45:01,66,1,-27,47,951
09/01/99,00:50:01,76,359,-27,47,951
09/01/99,00:55:01,87,360,-27,47,951
09/01/99,01:00:01,87,360,-27,47,951
09/01/99,01:05:01,87,360,-27,47,951
09/01/99,01:10:01,97,360,-27,47,951
09/01/99,01:15:01,69,360,-27,47,951
09/01/99,01:20:01,82,2,-27,47,951
09/01/99,01:25:01,78,22,-27,47,951
09/01/99,01:30:01,94,33,-27,47,951
09/01/99,01:35:01,82,33,-27,45,951
09/01/99,01:40:01,74,45,-27,45,951
09/01/99,01:45:01,76,45,-27,45,951
09/01/99,01:50:01,66,23,-27,45,951
09/01/99,01:55:01,70,23,-27,41,951
09/01/99,02:00:01,73,23,-27,41,951
09/01/99,02:05:01,70,33,-27,39,951
09/01/99,02:10:01,57,33,-27,35,951
09/01/99,02:15:01,57,31,-27,29,951
09/01/99,02:20:01,57,31,-27,27,951
09/01/99,02:25:01,68,31,-27,29,951
09/01/99,02:30:01,68,31,-27,31,951
09/01/99,02:35:01,70,41,-27,29,951
09/01/99,02:40:01,70,41,-27,31,951
09/01/99,02:45:01,53,41,-27,33,951
09/01/99,02:50:01,67,14,-25,29,951
09/01/99,02:55:01,73,14,-25,25,951
09/01/99,03:00:01,84,27,-25,25,951
09/01/99,03:05:01,74,27,-25,27,951
09/01/99,03:10:01,74,37,-25,27,951
09/01/99,03:15:01,73,27,-25,27,951
09/01/99,03:20:01,42,27,-25,27,951
09/01/99,03:25:01,20,55,-25,21,951
09/01/99,03:30:01,71,22,-25,21,951
09/01/99,03:35:01,70,32,-25,21,951
09/01/99,03:40:01,68,38,-25,23,951
09/01/99,03:45:01,83,27,-25,21,951
09/01/99,03:50:01,67,27,-25,21,951
09/01/99,03:55:01,62,41,-25,19,951
09/01/99,04:00:01,52,31,-25,17,951
09/01/99,04:05:01,65,21,-25,17,951
09/01/99,04:10:01,61,33,-25,15,951
09/01/99,04:15:01,64,44,-25,11,951
09/01/99,04:20:01,54,44,-25,9,951
09/01/99,04:25:01,54,51,-25,7,951
09/01/99,04:30:01,65,38,-25,7,951
09/01/99,04:35:01,68,52,-27,5,951
09/01/99,04:40:01,44,52,-27,5,951
09/01/99,04:45:01,32,52,-27,3,951
09/01/99,04:50:01,34,41,-27,3,951
09/01/99,04:55:01,33,37,-27,3,951
09/01/99,05:00:01,29,50,-27,3,951
09/01/99,05:05:01,21,62,-27,1,951
09/01/99,05:10:01,9,51,-27,1,951
09/01/99,05:15:01,9,32,-27,1,951
09/01/99,05:20:01,9,32,-27,1,951
09/01/99,05:25:01,9,22,-27,1,951
09/01/99,05:30:01,23,2,-27,1,951
09/01/99,05:35:01,30,15,-27,1,951
09/01/99,05:40:01,20,27,-27,1,951
09/01/99,05:45:01,32,37,-27,1,951
09/01/99,05:50:01,32,47,-27,1,951
09/01/99,05:55:01,32,47,-27,1,951
09/01/99,06:00:01,12,47,-27,1,951
09/01/99,06:05:01,35,47,-27,1,951
09/01/99,06:10:01,35,47,-27,1,951
09/01/99,06:15:01,23,47,-27,1,951
09/01/99,06:20:01,13,47,-27,1,951
09/01/99,06:25:01,3,47,-29,1,951
09/01/99,06:30:01,3,105,-29,1,951
09/01/99,06:35:01,41,132,-29,1,951
09/01/99,06:40:01,25,96,-29,1,951
09/01/99,06:45:01,0,119,-29,1,951
09/01/99,06:50:01,0,119,-29,1,951
09/01/99,06:55:01,32,142,-29,1,951
09/01/99,07:00:01,2,142,-29,1,951
09/01/99,07:05:01,2,142,-29,1,951
09/01/99,07:10:01,2,142,-29,1,951
09/01/99,07:15:01,4,129,-29,1,951
09/01/99,07:20:01,14,167,-29,1,951
09/01/99,07:25:01,3,128,-29,1,951
09/01/99,07:30:01,13,147,-29,1,951
09/01/99,07:35:01,24,55,-29,1,951
09/01/99,07:40:01,16,42,-29,1,951
09/01/99,07:45:01,31,42,-29,1,951
09/01/99,07:50:01,45,42,-29,1,951
09/01/99,07:55:01,9,58,-29,1,951
09/01/99,08:00:01,9,58,-29,1,951
09/01/99,08:05:01,9,58,-29,1,951
09/01/99,08:10:01,32,58,-29,1,951
09/01/99,08:15:01,51,43,-29,1,951
09/01/99,08:20:01,22,49,-29,1,951
09/01/99,08:25:01,0,61,-29,1,951
09/01/99,08:30:01,0,62,-29,1,951
09/01/99,08:35:01,26,38,-29,1,951
09/01/99,08:40:01,12,64,-29,1,951
09/01/99,08:45:01,14,37,-29,1,951
09/01/99,08:50:01,4,37,-29,1,951
09/01/99,08:55:01,23,37,-29,1,951
09/01/99,09:00:01,36,37,-29,1,951
09/01/99,09:05:01,38,37,-29,1,951
09/01/99,09:10:01,28,37,-29,1,951
09/01/99,09:15:01,39,22,-29,1,951
09/01/99,09:20:01,20,52,-29,1,951
09/01/99,09:25:01,63,27,-29,1,951
09/01/99,09:30:01,63,27,-29,1,951
09/01/99,09:35:01,73,27,-29,1,953
09/01/99,09:40:01,67,25,-29,1,953
09/01/99,09:45:01,76,34,-29,1,953
09/01/99,09:50:01,77,22,-29,1,953
09/01/99,09:55:01,64,29,-29,1,953
09/01/99,10:00:01,64,29,-29,1,953
09/01/99,10:05:01,54,44,-29,1,953
09/01/99,10:10:01,79,34,-27,1,953
09/01/99,10:15:01,63,44,-27,1,953
09/01/99,10:20:01,76,42,-27,1,953
09/01/99,10:25:01,76,32,-27,1,953
09/01/99,10:30:01,76,32,-27,1,953
09/01/99,10:35:01,66,48,-27,1,953
09/01/99,10:40:01,74,37,-27,1,953
09/01/99,10:45:01,63,49,-27,1,953
09/01/99,10:50:01,60,49,-27,1,953
09/01/99,10:55:01,60,38,-27,1,953
09/01/99,11:00:01,49,48,-27,1,953
09/01/99,11:05:01,55,46,-27,1,953
09/01/99,11:10:01,56,25,-27,1,953
09/01/99,11:15:01,46,41,-27,1,953
09/01/99,11:20:01,46,52,-27,1,953
09/01/99,11:25:01,46,52,-27,1,953
09/01/99,11:30:01,48,63,-27,1,953
09/01/99,11:35:01,39,64,-27,1,953
09/01/99,11:40:01,45,64,-27,1,953
09/01/99,11:45:01,44,64,-27,1,953
09/01/99,11:50:01,42,53,-27,1,953
09/01/99,11:55:01,32,78,-27,1,953
09/01/99,12:00:01,42,78,-27,1,953
09/01/99,12:05:01,25,78,-27,1,953
09/01/99,12:10:01,31,68,-27,1,953
09/01/99,12:15:01,24,88,-27,1,953
09/01/99,12:20:01,34,88,-27,1,953
09/01/99,12:25:01,21,90,-27,1,953
09/01/99,12:30:01,20,142,-27,1,953
09/01/99,12:35:01,17,142,-27,1,955
09/01/99,12:40:01,3,88,-27,1,955
09/01/99,12:45:01,22,131,-27,1,955
09/01/99,12:50:01,36,152,-27,1,955
09/01/99,12:55:01,40,156,-27,1,955
09/01/99,13:00:01,46,158,-27,1,955
09/01/99,13:05:01,34,157,-27,1,955
09/01/99,13:10:01,31,155,-27,1,955
09/01/99,13:15:01,34,149,-27,1,955
09/01/99,13:20:01,20,146,-27,1,955
09/01/99,13:25:01,37,157,-27,1,955
09/01/99,13:30:01,42,159,-27,1,955
09/01/99,13:35:01,42,159,-27,1,955
09/01/99,13:40:01,42,159,-27,1,955
09/01/99,13:45:01,32,159,-27,1,955
09/01/99,13:50:01,22,159,-27,1,955
09/01/99,13:55:01,32,159,-27,1,955
09/01/99,14:00:01,32,159,-27,1,955
09/01/99,14:05:01,18,159,-27,1,955
09/01/99,14:10:01,18,159,-27,1,955
09/01/99,14:15:01,6,159,-27,1,955
09/01/99,14:20:01,6,159,-27,1,955
09/01/99,14:25:01,16,159,-27,1,955
09/01/99,14:30:01,16,159,-27,1,955
09/01/99,14:35:01,50,171,-27,1,955
09/01/99,14:40:01,61,171,-27,1,955
09/01/99,14:45:01,49,171,-27,1,955
09/01/99,14:50:01,49,182,-27,1,955
09/01/99,14:55:01,60,182,-27,1,955
09/01/99,15:00:01,48,182,-27,1,955
09/01/99,15:05:01,48,182,-27,1,955
09/01/99,15:10:01,48,182,-27,1,955
09/01/99,15:15:01,48,195,-27,1,955
09/01/99,15:20:01,50,183,-27,1,955
09/01/99,15:25:01,40,183,-27,1,955
09/01/99,15:30:01,55,183,-27,1,955
09/01/99,15:35:01,13,183,-27,1,955
09/01/99,15:40:01,36,196,-27,1,955
09/01/99,15:45:01,24,196,-27,1,955
09/01/99,15:50:01,54,196,-27,1,955
09/01/99,15:55:01,54,196,-27,1,955
09/01/99,16:00:01,54,196,-27,1,955
09/01/99,16:05:01,5,206,-27,1,955
09/01/99,16:10:01,35,187,-29,1,955
09/01/99,16:15:01,9,187,-29,1,955
09/01/99,16:20:01,21,187,-29,1,955
09/01/99,16:25:01,26,164,-29,1,955
09/01/99,16:30:01,53,164,-29,1,955
09/01/99,16:35:01,63,174,-29,1,955
09/01/99,16:40:01,74,185,-29,1,955
09/01/99,16:45:01,74,185,-29,1,955
09/01/99,16:50:01,91,185,-29,1,955
09/01/99,16:55:01,77,185,-29,1,955
09/01/99,17:00:01,65,195,-29,1,955
09/01/99,17:05:01,53,195,-29,1,955
09/01/99,17:10:01,61,195,-29,1,957
09/01/99,17:15:01,16,195,-29,1,957
09/01/99,17:20:01,18,209,-29,1,957
09/01/99,17:25:01,10,186,-29,1,957
09/01/99,17:30:01,24,209,-29,1,957
09/01/99,17:35:01,37,229,-29,1,957
09/01/99,17:40:01,44,208,-29,1,957
09/01/99,17:45:01,52,208,-29,1,957
09/01/99,17:50:01,13,208,-29,1,957
09/01/99,17:55:01,88,233,-29,1,957
09/01/99,18:00:01,14,235,-29,1,957
09/01/99,18:05:01,14,171,-29,1,957
09/01/99,18:10:01,0,158,-29,1,957
09/01/99,18:15:01,14,110,-29,1,957
09/01/99,18:20:01,42,70,-29,1,957
09/01/99,18:25:01,10,86,-29,1,957
09/01/99,18:30:01,32,51,-29,1,957
09/01/99,18:35:01,59,14,-29,1,957
09/01/99,18:40:01,72,26,-29,1,957
09/01/99,18:45:01,77,24,-29,1,957
09/01/99,18:50:01,77,24,-29,1,957
09/01/99,18:55:01,66,14,-29,1,957
09/01/99,19:00:01,54,4,-29,1,957
09/01/99,19:05:01,0,307,-29,1,957
09/01/99,19:10:01,9,10,-29,1,957
09/01/99,19:15:01,9,16,-29,1,957
09/01/99,19:20:01,9,357,-27,1,957
09/01/99,19:25:01,9,26,-27,1,957
09/01/99,19:30:01,9,69,-27,1,957
09/01/99,19:35:01,4,30,-27,1,957
09/01/99,19:40:01,2,30,-27,1,957
09/01/99,19:45:01,2,120,-27,1,957
09/01/99,19:50:01,28,264,-27,1,957
09/01/99,19:55:01,32,202,-27,1,957
09/01/99,20:00:01,5,163,-27,1,957
09/01/99,20:05:01,52,297,-27,1,957
09/01/99,20:10:01,33,297,-27,1,957
09/01/99,20:15:01,21,326,-27,1,957
09/01/99,20:20:01,43,315,-27,1,957
09/01/99,20:25:01,20,253,-27,1,957
09/01/99,20:30:01,9,240,-27,1,957
09/01/99,20:35:01,18,252,-27,1,957
09/01/99,20:40:01,8,297,-27,1,957
09/01/99,20:45:01,7,297,-27,1,957
09/01/99,20:50:01,7,338,-27,1,957
09/01/99,20:55:01,51,306,-27,1,957
09/01/99,21:00:01,27,285,-27,1,957
09/01/99,21:05:01,9,300,-27,1,957
09/01/99,21:10:01,9,234,-27,1,957
09/01/99,21:15:01,9,234,-27,3,957
09/01/99,21:20:01,12,287,-27,5,957
09/01/99,21:25:01,9,287,-27,7,957
09/01/99,21:30:01,5,249,-27,9,957
09/01/99,21:35:01,25,256,-27,11,957
09/01/99,21:40:01,2,256,-27,11,957
09/01/99,21:45:01,2,256,-27,13,957
09/01/99,21:50:01,2,231,-27,13,957
09/01/99,21:55:01,24,176,-27,13,957
09/01/99,22:00:01,1,201,-27,9,957
09/01/99,22:05:01,13,345,-27,9,957
09/01/99,22:10:01,39,340,-27,9,959
09/01/99,22:15:01,20,341,-27,11,959
09/01/99,22:20:01,23,336,-27,11,959
09/01/99,22:25:01,23,37,-27,11,959
09/01/99,22:30:01,30,177,-27,13,959
09/01/99,22:35:01,68,179,-27,13,959
09/01/99,22:40:01,93,193,-27,13,959
09/01/99,22:45:01,66,203,-27,13,959
09/01/99,22:50:01,191,169,-27,17,959
09/01/99,22:55:01,157,165,-27,17,959
09/01/99,23:00:01,76,199,-27,17,959
09/01/99,23:05:01,208,202,-27,19,959
09/01/99,23:10:01,342,192,-27,19,959
09/01/99,23:15:01,393,189,-25,19,959
09/01/99,23:20:01,323,176,-25,21,959
09/01/99,23:25:01,331,177,-25,23,959
09/01/99,23:30:01,335,200,-25,25,959
09/01/99,23:35:01,361,184,-25,25,959
09/01/99,23:40:01,307,185,-25,23,959
09/01/99,23:45:01,355,185,-25,21,959
09/01/99,23:50:01,358,185,-25,21,957
09/01/99,23:55:01,377,193,-25,21,957
09/02/99,00:00:01,396,190,-25,21,957
